Tracking 29091 objects as of 17-Jul-2024
HD Live streaming from Space Station
objects crossing your sky now

CZ-4B R/B

Track CZ-4B R/B now!
10-day predictions


NORAD ID: 43656
Int'l Code: 2018-081B
Perigee: 646.2 km
Apogee: 943.0 km
Inclination: 99.4 °
Period: 100.6 minutes
Semi major axis: 7165 km
RCS: Unknown
Launch date: October 24, 2018
Source: People's Republic of China (PRC)
Launch site: Taiyaun Space Center, China (TSC)

Note: This is a ROCKET BODY
Your satellite tracking list
Your tracking list is empty




NASA's NSSDC Master Catalog

Two Line Element Set (TLE):
1 43656U 18081B   24199.59161721  .00000648  00000-0  21039-3 0  9995
2 43656  99.4417  48.7356 0207093 119.4224 242.7801 14.31266379299205
Source of the keplerian elements: AFSPC